"Pseudo-MPEC" for C9G4XQ2

Created 2023 Oct 1 2:22:06 UT using Find_Orb

Click here for an explanation of pseudo-MPECs

 
 Astrometry: 
     C9G4XQ2 KC2023 06 23U=GK:yAstrometryJrPg@@VSQPIyhdLZ8L,?T/_j:a??!jsI1nChF52
     C9G4XQ2 KC2023 06 29GtrKN:5Tu'['F5j_%.SfNsAF=;redacted;o(clp0AB5o]$#X+^9F51
     C9G4XQ2* C2023 08 21,N]kclickSlyttL;ti0DKs6v^WsUx^g]BZiJ5$d4R^:G2)XV.+m*F51
     C9G4XQ2  C2023 08 21iJI=QXhere;5Fx1B\x1:byF9m3vKi*W65;8=lpX[p1Fw-\urP8qvF51
     C9G4XQ2  C2023 08 218djK`ooD_Y'KDlBW'8B(i)?!oWLko65uP_DNe).l*3kPU2HD:7'XF51
     C9G4XQ2  C2023 08 210('g.M7xbf(GdVgmYQR$\-n/Jb!+t13SuODsk0!mNXZuPmM(r/jxF51
     C9G4XQ2  C2023 08 23Wy#?.9fvo?qD=Ej'F]UXqP/d#7\f'[C[^5lV!hKt:J7_:_QsrH$'F52
     C9G4XQ2  C2023 08 23f[rIHT^Eivb$BreC%G8d;0#F*uHb5CO8k]vkLrSPnKVYH1^p#e32F52
     C9G4XQ2  C2023 08 23qU4YXI#a;HD79JclXq1k@B*jE,/Xfu*B0cT3@oOimf\=*)q(-t$7F52
     C9G4XQ2  C2023 09 06#xN6#@`3)nG$cvm0)M2E3'$a,;/m.E21eLyIuFM8vtIl#vmjuc#WF51
     C9G4XQ2  C2023 09 06gc]xLP,rr7iq:dqAVG;%9sV,c+p@b78Kt7R%w$uo;d@0(kQ_8GRtF51
     C9G4XQ2  C2023 09 06t87b1hInN`F-8J)a?G()*s[if\-rV\0GbMX*''xUBD=ZHforFABmF51
     C9G4XQ2 1C2023 09 07.37682523 59 22.841-15 32 07.01   ~9BFb 20.93GVNEOCPG96
     C9G4XQ2 1C2023 09 07.38196023 59 22.924-15 32 17.95   ~9BFb 20.46GVNEOCPG96
     C9G4XQ2 1C2023 09 07.38708523 59 22.967-15 32 28.68   ~9BFb 21.08GVNEOCPG96
     C9G4XQ2 1C2023 09 07.39223023 59 23.078-15 32 39.80   ~9BFb 20.29GVNEOCPG96
     C9G4XQ2  C2023 09 07IKww,@=B(5RdEyrW0y9//[-L;0L\Rs`#q]0k,M5_k4^qap(`/kIjF52
     C9G4XQ2  C2023 09 07xO+.!A:u'F(kr4?as0v2(]\dwk/!5-PtpR;0'C('a0r4E7urq*^.F52
     C9G4XQ2  C2023 09 07fH`1WaF7@hC\S$Y[+tl$.7o*/qUnUd4W$F4eF-VAuTW(26dd0vsGF52
     C9G4XQ2  C2023 09 08kW0c2XrPmPTms9K*Z!87]J'GhlWd?X0vCM.!E9HOm;HA/s%iN=[2F51
     C9G4XQ2  C2023 09 08g30.ENMW^#Te20eKX:rNbm]6r5a*WXgf=onNTK)s]9^bKy5y;\\QF51
     C9G4XQ2  C2023 09 08UcJD$T!\LB#C8KrFv!?4n$P?We?r!$WN!w\WY/y6Rk;J78%1MiVmF51
     C9G4XQ2  C2023 09 08FvfrxAP/`Xd];Ap$uaVf[X::i@hXQ[XM!*%B[4(9x?T@jXoQi[SJF51
     C9G4XQ2 1C2023 09 14mH6B,nsAB1%?l9G+8A:21r'aboe0q^F:Do3fu4b`9'RS)8E$RWi$Q62
     C9G4XQ2 1C2023 09 14^+@T_0LCWfhLy.!gJb[,nhi,3m8j\qNAk(uP9GNp3pvgXw.(_ih.Q62
     C9G4XQ2  C2023 09 15WW:DJ-4`$'oE#y8J'.8w^%U[38uW)4^w3b^GI*ecae!flc$D!]y6F51
     C9G4XQ2  C2023 09 15p7e'rnpVF)r^*A!Hf1g+fSR)1v*nOA?A,F9UIUyA9*=nRC5d@^LhF51
     C9G4XQ2  C2023 09 15OHLxRG=s.cf=Z5LYVe=M4ppI4[irS:\gZJhQCvocmOx?b/_\sP-BF51
     C9G4XQ2  C2023 09 15dBe6u[Q1TrF$:wkle^u$8'c=6HJ22Fwu3--g%Skt*Gew3IL+Md2jF51
     C9G4XQ2 KC2023 09 18\)Z*.lpTjsPW7D`DiZN7E%$nRcvO@SX!]fmTu7M%nSl9`\M4Mr:+E94
     C9G4XQ2 KC2023 09 18AFn=C7oU8SB`aqQ4vFA8l5x(bf/[Z:.sC+0la#E]c,T:tP:pBa+@E94
     C9G4XQ2 KC2023 09 19iG`y\A98!1xavkHyj+Q90%iKu12Z+U(FTdAH#B$huedf4=0sY;3jE94
     C9G4XQ2 KC2023 09 19AVoB'wM6YMkCnm7qi2\-RJKD^X1NygCo/$F7;%d`#YS#pJF\`.h1E94
     C9G4XQ2 KC2023 09 19Y*U=bfF;Si1=HWT=7W:Qexplanation0q!4r]t%+_0:VLh4Fy+H0E94
     C9G4XQ2 KC2023 09 19_?GWva/`3dt+HH1'.J7HZd)],q]__o;$=LX5`E4P6;)D?AG_*]EUE94

Station data:
(E94) Gisborne (Possum Observatory)  (S38.629920 E177.883310)  New Zealand.
   Observer J. Drummond. 0.41-m f/4.5 Newtonian reflector + CCD.
(F51) Pan-STARRS 1, Haleakala  (N20.707234 W156.255910)  US/Hawaii.
   Observers J. Bulger, T. Lowe, A. Schultz, M. Willman. Measurers K.
   Chambers, S. Chastel, T. de Boer, L. Denneau, J. Fairlamb, H. Flewelling,
   M. Huber, C.-C. Lin, E. Magnier, Y. Ramanjooloo, R. Wainscoat, R. Weryk.
   1.8-m Ritchey-Chrétien + CCD.
(F52) Pan-STARRS 2, Haleakala  (N20.707382 W156.255910)  US/Hawaii.
   Observers J. Bulger, T. Dukes, T. Lowe, A. Schultz, M. Willman. Measurers
   K. Chambers, S. Chastel, T. de Boer, L. Denneau, J. Fairlamb, H.
   Flewelling, M. Huber, C.-C. Lin, E. Magnier, Y. Ramanjooloo, R. Wainscoat,
   R. Weryk. 1.8-m Ritchey-Chrétien + CCD.
(G96) Mt. Lemmon Survey  (N32.442751 W110.788720)  US/Arizona.  Observer E.
   J. Christensen. 1.5-m reflector + 10K CCD.
(Q62) iTelescope Observatory, Siding Spring  (S31.273286 E149.064420)
   Australia/NSW.  Observer H. Sato. 0.51-m f/6.8 astrograph + CCD + f/4.5
   focal reducer0.43-m f/6.8 astrograph + CCD + focal reducer0.43-m f/6.8
   astrograph + CCD0.10-m f/5 astrograph + CCD0.127-m f/5.6 refractor +
   CCD0.50-m f/6.8 reflector + CCD0.30-m f/9 reflector + CCD.

Orbital elements:  C9G4XQ2
   Perihelion 2023 Sep 24.15241 +/- 0.000826 TT =  3:39:28 (JD 2460211.65241)
Epoch 2023 Sep 19.0 TT = JDT 2460206.5                           AutoNEOCP
M 359.94724349 +/- 0.000013         (J2000 ecliptic)
n   0.01023919 +/- 2.57e-6          Peri.  199.98132 +/- 0.00038
a  21.0035226 +/- 0.00351           Node   159.20702 +/- 0.000058
e   0.9039859 +/- 1.57e-5           Incl.   37.04805 +/- 0.00021
P  96.26                   H 18.57  G  0.15   U  4.1
q 2.01663372 +/- 7.2e-6    Q 39.9904114 +/- 0.00702
34 of 35 observations 2023 June 23-Sept. 19; mean residual 0".19
Residuals in arcseconds: 
230623 F52  .03-  .13+    230907 G96  .36-  .11-    230914 Q62  .16+  .05-    
230629 F51  .05+  .16-    230907 G96  .13-  .11-    230915 F51  .05+  .04-    
230821 F51  .03-  .07-    230907 G96  .47-  .08+    230915 F51  .04+  .06+    
230821 F51  .14+  .03-    230907 G96  .16+  .08-    230915 F51  .01+  .03+    
230821 F51  .05+  .07+    230907 F52  .03+  .07+    230915 F51  .11+  .05-    
230821 F51  .04-  .12-    230907 F52  .03-  .02+    230918 E94  .21+  .43+    
230823 F52  .12-  .31+    230907 F52  .06+  .03+    230918 E94  .11+  .14+    
230823 F52  .11+  .01-    230908 F51  .02-  .01-    230919 E94( 2.3-  .92+)   
230823 F52  .07-  .08+    230908 F51  .01-  .06-    230919 E94  .81-  .82+    
230906 F51  .01+  .01-    230908 F51  .01-  .09-    230919 E94  .08+  .17-    
230906 F51  .08+  .30-    230908 F51  .02+  .03-    230919 E94  .09-  .01+    
230906 F51  .24-  .01-    230914 Q62  .06+  .04-    

Ephemerides (geocentric):
Date (UTC) HH   RA             Dec           delta  r     elong  mag " sig PA
---- --------  ------------   ------------  ------ ------ -----  --- --------
2023 10 01 02  00 03 46.629   -28 08 07.81  1.0956 2.0182 148.5 21.1 .113 111
2023 10 01 03  00 03 47.074   -28 09 11.89  1.0958 2.0182 148.4 21.1 .114 111
2023 10 01 04  00 03 47.520   -28 10 15.90  1.0960 2.0182 148.4 21.1 .114 111
2023 10 01 05  00 03 47.966   -28 11 19.85  1.0963 2.0183 148.3 21.1 .114 111
2023 10 01 06  00 03 48.413   -28 12 23.72  1.0965 2.0183 148.3 21.1 .114 111
2023 10 01 07  00 03 48.860   -28 13 27.52  1.0968 2.0183 148.3 21.1 .114 111
2023 10 01 08  00 03 49.308   -28 14 31.24  1.0970 2.0183 148.2 21.1 .115 111
2023 10 01 09  00 03 49.757   -28 15 34.90  1.0972 2.0183 148.2 21.1 .115 111
2023 10 01 10  00 03 50.206   -28 16 38.49  1.0975 2.0184 148.2 21.1 .115 111
2023 10 01 11  00 03 50.655   -28 17 42.01  1.0977 2.0184 148.1 21.1 .115 111
2023 10 01 12  00 03 51.106   -28 18 45.45  1.0979 2.0184 148.1 21.1 .116 111
2023 10 01 13  00 03 51.557   -28 19 48.83  1.0982 2.0184 148.0 21.1 .116 111
2023 10 01 14  00 03 52.008   -28 20 52.13  1.0984 2.0184 148.0 21.1 .116 111
2023 10 01 15  00 03 52.461   -28 21 55.36  1.0987 2.0185 148.0 21.1 .116 111
2023 10 01 16  00 03 52.914   -28 22 58.52  1.0989 2.0185 147.9 21.1 .116 111
2023 10 01 17  00 03 53.367   -28 24 01.61  1.0991 2.0185 147.9 21.1 .117 111
2023 10 01 18  00 03 53.821   -28 25 04.63  1.0994 2.0185 147.8 21.1 .117 111
2023 10 01 19  00 03 54.276   -28 26 07.58  1.0996 2.0185 147.8 21.1 .117 111
2023 10 01 20  00 03 54.731   -28 27 10.45  1.0999 2.0186 147.8 21.1 .117 112
2023 10 01 21  00 03 55.187   -28 28 13.26  1.1001 2.0186 147.7 21.2 .117 112
2023 10 01 22  00 03 55.644   -28 29 15.99  1.1003 2.0186 147.7 21.2 .118 112
2023 10 01 23  00 03 56.101   -28 30 18.65  1.1006 2.0186 147.6 21.2 .118 112
2023 10 02 00  00 03 56.559   -28 31 21.24  1.1008 2.0187 147.6 21.2 .118 112
2023 10 02 01  00 03 57.018   -28 32 23.76  1.1011 2.0187 147.6 21.2 .118 112
2023 10 02 02  00 03 57.477   -28 33 26.20  1.1013 2.0187 147.5 21.2 .119 112
2023 10 02 03  00 03 57.937   -28 34 28.58  1.1016 2.0187 147.5 21.2 .119 112
2023 10 02 04  00 03 58.398   -28 35 30.88  1.1018 2.0187 147.4 21.2 .119 112
2023 10 02 05  00 03 58.859   -28 36 33.11  1.1021 2.0188 147.4 21.2 .119 112
2023 10 02 06  00 03 59.321   -28 37 35.27  1.1023 2.0188 147.4 21.2 .119 112
2023 10 02 07  00 03 59.783   -28 38 37.36  1.1025 2.0188 147.3 21.2 .120 112
2023 10 02 08  00 04 00.247   -28 39 39.38  1.1028 2.0188 147.3 21.2 .120 112
2023 10 02 09  00 04 00.711   -28 40 41.32  1.1030 2.0189 147.2 21.2 .120 112
2023 10 02 10  00 04 01.175   -28 41 43.19  1.1033 2.0189 147.2 21.2 .120 112
2023 10 02 11  00 04 01.640   -28 42 44.99  1.1035 2.0189 147.2 21.2 .121 112
2023 10 02 12  00 04 02.106   -28 43 46.72  1.1038 2.0189 147.1 21.2 .121 112
2023 10 02 13  00 04 02.573   -28 44 48.38  1.1040 2.0189 147.1 21.2 .121 112
2023 10 02 14  00 04 03.041   -28 45 49.96  1.1043 2.0190 147.0 21.2 .121 112
2023 10 02 15  00 04 03.509   -28 46 51.48  1.1045 2.0190 147.0 21.2 .121 113
2023 10 02 16  00 04 03.977   -28 47 52.92  1.1048 2.0190 147.0 21.2 .122 113
2023 10 02 17  00 04 04.447   -28 48 54.28  1.1050 2.0190 146.9 21.2 .122 113
2023 10 02 18  00 04 04.917   -28 49 55.58  1.1053 2.0191 146.9 21.2 .122 113
2023 10 02 19  00 04 05.388   -28 50 56.80  1.1055 2.0191 146.8 21.2 .122 113
2023 10 02 20  00 04 05.860   -28 51 57.95  1.1058 2.0191 146.8 21.2 .123 113
2023 10 02 21  00 04 06.332   -28 52 59.03  1.1060 2.0191 146.8 21.2 .123 113
2023 10 02 22  00 04 06.805   -28 54 00.04  1.1063 2.0192 146.7 21.2 .123 113
2023 10 02 23  00 04 07.279   -28 55 00.97  1.1065 2.0192 146.7 21.2 .123 113
2023 10 03 00  00 04 07.753   -28 56 01.84  1.1068 2.0192 146.6 21.2 .123 113
2023 10 03 01  00 04 08.228   -28 57 02.62  1.1070 2.0192 146.6 21.2 .124 113